Location: West Chester
(39.9610°N, 75.6060°W)
Time: 20:20:48
(UTC-04:00)

ARIANE 6 FM1 Upper Stage - Pass Details

Date: 24 September 2024
Orbit: 563 x 594 km, 62.0° (Epoch: 11 October)

Event Time Altitude Azimuth Distance (km) Brightness Sun altitude
Rises 19:16:04 0° 209° (SSW) 2,759 6.6 -4.8°
Reaches altitude 10° 19:18:17 10° 207° (SSW) 1,871 5.7 -5.2°
Maximum altitude 19:22:29 71° 123° (ESE) 615 2.7 -6.0°
Drops below altitude 10° 19:26:46 10° 40° (NE) 1,906 5.0 -6.9°
Sets 19:29:03 0° 38° (NE) 2,815 5.9 -7.3°
